Location: Sawyer Lake
(45.2517°N, 88.7550°W)
Time: 12:11:43
(UTC-06:00)

Daily predictions for brighter satellites

Satellite Brightness Start Highest point End
(mag) Time Altitude Azimuth Time Altitude Azimuth Time Altitude Azimuth
Cosmos 2228 Rocket 3.1 17:09:37 10° N 17:14:01 68° E 17:18:26 10° SSE
Cosmos 389 Rocket 3.3 17:13:40 10° NNW 17:17:13 58° W 17:20:41 10° S
ATLAS 3B R/B 4.5 17:16:04 10° WNW 17:21:13 20° NNW 17:26:13 10° NNE
Cosmos 371 Rocket 3.6 17:17:49 10° S 17:22:23 46° ESE 17:27:01 10° NNE
Cosmos 540 Rocket 4.2 17:18:16 10° SSE 17:22:48 32° E 17:27:23 10° NE
Cosmos 1844 Rocket 3.0 17:18:03 10° NNW 17:23:44 75° WSW 17:29:21 10° SSE
SJ-7 4.3 17:20:05 10° SSE 17:24:07 84° ENE 17:28:09 10° NNW
MSX 3.8 17:20:04 10° SSE 17:25:45 75° ENE 17:31:30 10° N
USA 215 3.4 17:21:44 10° ESE 17:28:06 56° NNE 17:34:29 10° NW
Cosmos 2151 3.7 17:24:46 10° SSE 17:28:30 32° E 17:32:14 10° NNE
SMAP 3.3 17:25:10 10° S 17:29:49 79° WSW 17:34:30 10° NNW
SL-16 R/B 4.4 17:25:52 10° W 17:29:53 19° NW 17:33:54 10° N
Lacrosse 5 rocket 1.3 17:28:13 10° NW 17:31:54 52° NE 17:35:44 10° ESE
Cosmos 1743 Rocket 3.6 17:28:56 10° S 17:33:24 81° E 17:37:54 10° N
Cosmos 1328 Rocket 3.8 17:29:38 10° N 17:34:06 79° W 17:38:32 10° S
Cosmos 2333 4.4 17:33:55 10° SSW 17:39:31 74° WNW 17:45:09 10° NNE
FREGAT/IRIS 4.4 17:38:18 10° ESE 17:40:04 15° ENE 17:41:51 10° NNE
Meteor 2-10 4.2 17:36:58 10° N 17:41:51 45° ENE 17:46:49 10° SSE
Cosmos 44 Rocket 3.4 17:37:46 10° SSW 17:42:52 75° ESE 17:47:55 10° NE
Cosmos 2360 Rocket 3.8 17:38:01 10° WSW 17:42:58 31° NW 17:47:58 10° N
Cosmos 1515 Rocket 3.7 17:38:59 10° N 17:43:29 84° W 17:47:56 10° S
Cosmos 1151 Rocket 2.9 17:40:04 10° N 17:44:21 68° E 17:48:37 10° SSE
Cosmos 1980 3.8 17:40:35 10° S 17:46:07 57° ESE 17:51:41 10° NNE
CZ-4 R/B 3.0 17:42:32 10° SSW 17:46:09 38° W 17:49:50 10° NNW
SKYMED 2 3.7 17:44:53 10° NNE 17:49:09 51° E 17:53:22 10° S
Cosmos 1328 3.7 17:46:02 10° S 17:49:57 72° E 17:53:54 10° NNE
Cosmos 1125 Rocket 3.5 17:45:52 10° NNW 17:51:06 87° WSW 17:56:19 10° SSE
Cosmos 1805 Rocket 4.5 17:48:42 10° SSE 17:52:29 28° E 17:56:17 10° NNE
Thor Agena Rocket 3.8 17:49:44 10° NNE 17:55:00 75° WNW 18:00:10 10° SSW
METEOR-M 4.4 17:51:17 10° SE 17:56:19 43° ENE 18:01:22 10° N
Transit 2A Rocket 4.4 17:52:29 10° NNW 17:56:51 72° ENE 18:01:08 10° SE
ATLAS 5 CENTAUR R/B 4.2 17:54:55 10° NNW 17:57:28 13° NNE 17:59:55 10° NE
Lacrosse 5 3.4 17:54:15 10° WNW 17:58:22 24° NNW 18:01:55 12° NE
Cosmos 1500 Rocket 3.7 17:55:18 10° SSW 17:59:37 74° W 18:04:01 10° N
Spot 2 Rocket 4.4 17:58:25 10° ESE 18:02:30 25° ENE 18:06:35 10° N
Abrixas 3.6 18:00:01 10° SSW 18:02:37 30° SSE 18:03:34 24° ESE
Cosmos 2333 Rocket 2.2 17:57:24 10° SSW 18:03:03 89° E 18:08:45 10° NNE
Cosmos 841 Rocket 4.3 17:58:30 10° SW 18:03:38 51° WNW 18:08:47 10° NNE
Cosmos 304 Rocket 4.4 17:59:16 10° SSE 18:03:38 36° ESE 18:06:42 17° NE
SJ-6B 3.4 18:01:05 10° SE 18:04:52 38° ENE 18:08:43 10° N
CENTAUR R/B 3.3 17:59:29 10° WSW 18:05:33 50° NW 18:12:27 10° NNE
Lacrosse 4 Rocket 2.8 18:03:25 10° N 18:06:09 18° NE 18:06:09 18° NE
CZ-2C R/B 4.4 18:02:52 10° SSW 18:07:16 31° W 18:11:35 10° NNW
Cosmos 2219 Rocket 2.5 18:02:46 10° SW 18:08:23 67° WNW 18:14:00 10° NNE
Cosmos 1900 4.5 18:03:35 10° NNW 18:08:25 51° NE 18:13:17 10° SE
Cosmos 1634 Rocket 4.4 18:03:52 10° NNW 18:10:00 65° W 18:16:05 10° S
Sich 1 3.9 18:08:16 10° SSE 18:12:05 29° E 18:13:25 25° ENE
Cosmos 1703 3.6 18:08:32 10° SSE 18:12:11 40° E 18:14:26 20° NE
Cosmos 2084 3.6 18:10:04 10° SW 18:13:53 58° NW 18:16:26 19° NNE
Cosmos 1626 2.8 18:11:44 10° SSE 18:15:06 32° E 18:15:28 31° E
NOSS 0 Rocket 4.0 18:09:01 10° SSW 18:15:15 84° WNW 18:21:31 10° NNE
Cosmos 2278 Rocket 2.7 18:09:52 10° NNW 18:15:30 65° WSW 18:21:06 10° SSE
NOAA 12 4.0 18:10:52 10° SSE 18:16:03 68° ENE 18:21:18 10° N
Cosmos 1633 Rocket 3.8 18:14:15 10° SSE 18:18:05 29° E 18:18:22 29° E
Cosmos 1455 2.7 18:16:27 10° N 18:19:58 36° ENE 18:20:43 32° ESE
Cosmos 1461 3.4 18:21:37 10° S 18:25:29 37° ESE 18:26:00 36° E
Meteor 1-27 4.5 18:19:52 10° NNW 18:25:41 77° W 18:31:31 10° S
CZ-4C R/B 4.3 18:23:53 10° NNW 18:28:03 17° NNE 18:30:14 15° NE
Cosmos 2058 3.0 18:24:33 10° SSW 18:28:40 73° W 18:32:46 10° N
Cosmos 1726 3.9 18:25:44 10° NNW 18:29:10 34° W 18:32:36 10° SSW
Cosmos 1340 Rocket 2.7 18:29:17 10° SSW 18:33:14 84° W 18:36:29 15° N
Aureole 2 Rocket 2.7 18:29:54 10° SSW 18:33:38 79° WNW 18:35:57 24° NNE
COSMO-SKYMED 1 3.4 18:32:57 10° N 18:37:11 50° WNW 18:41:22 10° SSW
Cosmos 1707 Rocket 3.4 18:34:31 10° N 18:38:52 83° E 18:43:11 10° S
Resurs 01 Rocket 1.7 18:40:43 38° ESE 18:42:00 52° ENE 18:46:20 10° N
Cosmos 2237 Rocket 2.7 18:36:35 10° SW 18:42:08 59° WNW 18:47:12 13° NNE
Cosmos 2369 Rocket 3.6 18:40:50 10° N 18:43:53 21° NNE 18:43:53 21° NNE
Cosmos 44 4.0 18:42:29 10° SW 18:47:36 54° NW 18:50:28 24° NNE
ALOS 2.1 18:43:16 10° SSE 18:47:54 64° ENE 18:52:31 10° N
SL-16 R/B 2.1 18:42:36 10° SSW 18:48:13 72° ESE 18:50:51 33° NE
BREEZE-M DEB (TANK) 3.0 18:47:39 10° WSW 18:49:06 32° W 18:49:06 32° W
Cosmos 1356 Rocket 3.1 18:47:09 10° S 18:51:08 82° E 18:51:30 71° NE
Cosmos 1666 Rocket 3.4 18:47:00 10° S 18:51:20 80° E 18:52:47 42° NNE
Cosmos 773 Rocket 4.2 18:51:57 10° S 18:56:27 49° SE 18:56:27 49° SE
Cosmos 2297 4.1 18:51:20 10° NNW 18:56:59 63° WSW 19:02:37 10° S
Aureole 1 Rocket 3.9 18:56:51 10° S 19:02:04 57° ESE 19:03:16 49° ENE
BREEZE-M DEB (TANK) 4.3 18:50:53 10° W 19:09:54 66° N 19:11:21 50° NE
Lacrosse 5 rocket 3.4 19:07:49 10° WNW 19:10:53 23° SW 19:13:11 14° S
USA 215 3.8 19:05:31 14° SSE 19:11:07 56° SW 19:17:33 10° WNW
ATLAS 3B R/B 4.3 19:10:09 10° NNW 19:14:52 18° NNE 19:15:32 18° NNE
Cosmos 2242 Rocket 4.3 19:10:36 10° N 19:13:41 44° NNW 19:13:41 44° NNW
Nadezhda 4 Rocket 4.3 19:15:59 10° SSW 19:22:11 67° W 19:28:31 10° N
FENGYUN 3A 4.1 19:23:28 10° S 19:28:44 59° W 19:34:04 10° NNW
Spot 2 Rocket 4.4 19:36:23 10° S 19:41:12 45° W 19:46:03 10° NNW
Cosmos 1092 Rocket 4.3 19:35:18 10° SSW 19:41:35 66° W 19:47:56 10° N
Lacrosse 5 3.8 19:38:43 10° NW 19:41:08 20° NNW 19:41:08 20° NNW
ATLAS 5 CENTAUR R/B 4.0 19:39:04 10° NNW 19:41:29 21° N 19:41:29 21° N
Lacrosse 4 Rocket 3.7 19:41:22 10° NW 19:42:33 18° NW 19:42:33 18° NW
Cosmos 2333 Rocket 4.5 19:44:15 10° W 19:48:08 19° NW 19:51:28 12° N
USA 229 DEB 3.8 19:48:42 10° SW 19:54:39 70° SW 19:54:39 70° SW
USA 229 3.8 19:48:48 10° SW 19:54:42 69° SW 19:54:42 69° SW
CENTAUR R/B 4.5 19:53:05 10° WNW 19:58:05 21° NNW 19:59:56 19° N
Cosmos 1943 Rocket 4.5 19:57:09 10° NNW 19:57:47 13° N 19:57:47 13° N
CZ-4C R/B 4.2 20:12:23 10° NNW 20:15:25 25° N 20:15:25 25° N
Resurs 01 Rocket 4.3 20:18:16 17° W 20:18:47 17° W 20:21:41 10° NW
Cosmos 2369 Rocket 4.3 20:24:12 10° NNW 20:25:43 19° NNW 20:25:43 19° NNW
SL-16 R/B 4.2 20:28:35 10° W 20:32:47 22° NW 20:32:47 22° NW
